Location: Eboldshausen
(51.7766°N, 10.0050°E)
Time: 18:08:17
(UTC+00:00)

Cosmos 1441 Rocket - Pass Details

Date: 15 November 2025
Orbit: 424 x 448 km, 81.1° (Epoch: 10 December)

Event Time Altitude Azimuth Distance (km) Brightness Sun altitude
Rises 16:23:02 0° 345° (NNW) 2,404 6.5 -8.4°
Reaches altitude 10° 16:25:06 10° 344° (NNW) 1,534 5.6 -8.7°
Maximum altitude 16:28:25 73° 260° (W) 456 3.1 -9.2°
Drops below altitude 10° 16:31:45 10° 175° (S) 1,531 5.8 -9.6°
Sets 16:33:47 0° 173° (S) 2,398 6.7 -9.9°
